Location: Boiro
(42.6475°N, 8.8834°W)
Time: 09:08:06
(UTC+01:00)

Vanguard 3 - Pass Details

Date: 06 December 2021
Orbit: 508 x 3260 km, 33.3° (Epoch: 24 January)

Event Time Altitude Azimuth Distance (km) Brightness Sun altitude
Rises 07:06:17 0° 261° (W) 7,158 - -18.6°
Reaches altitude 10° 07:11:07 10° 258° (WSW) 6,196 - -17.8°
Exits shadow 07:12:27 13° 258° (WSW) 5,931 11.0 -17.5°
Maximum altitude 07:30:25 62° 185° (S) 3,120 10.1 -14.4°
Drops below altitude 10° 07:44:05 10° 110° (ESE) 4,564 12.5 -12.0°
Sets 07:47:04 0° 106° (ESE) 5,253 13.5 -11.5°
